Flag for Russia Weather past 2 weeks in Saint-Petersburg, Russia

Now
77 °F

Passing clouds.


Feels Like: 79 °F
Forecast: 60 / 68 °F
Wind: 10 mph from West

Location: St. Petersburg

Current Time: Jul 4, 2015 at 11:28:25 AM

Latest Report: Jul 4, 2015 at 11:00 AM


Visibility: N/A

Pressure: 29.98 "Hg

Humidity: 51%

Dew point: 57 °F

Location of Saint-PetersburgLocation

Historic Weather in Saint-Petersburg — Graph

°F

Saint-Petersburg temperature yesterday

Maximum temperature yesterday: 84 °F (at 2:30 PM)
Minimum temperature yesterday: 59 °F (at 12:00 AM)
Average temperature yesterday: 73 °F

Past Weeks' High & Low Weather Summary

 TemperatureHumidityPressure
High84 °F (Jul 3, 2:30 PM)100% (Jun 23, 4:30 AM)30.33 "Hg (Jun 23, 4:30 AM)
Low46 °F (Jun 27, 3:00 AM)32% (Jun 20, 1:30 PM)29.74 "Hg (Jun 23, 5:00 AM)
Average63 °F68%29.94 "Hg
* Reported Jun 19 10:00 AM — Jul 4 10:00 AM, Saint-Petersburg, Weather by CustomWeather, © 2015

Note: Actual official high and low records may vary slightly from our data, if they occured in-between our weather recording intervals... More about our weather records

Advertising

Saint-Petersburg weather history for previous 24 hours

 ConditionsComfort  
Time TempWeatherWind HumidityBarometerVisibility
10:00 AM
Sat, Jul 4
75 °FPassing clouds.10 mph54%29.98 "HgN/A
9:30 AM73 °FPassing clouds.10 mph57%29.98 "HgN/A
9:00 AM72 °FSunny.13 mph61%29.98 "Hg10 mi
8:30 AM72 °FPassing clouds.10 mph61%30.01 "HgN/A
8:00 AM70 °FPassing clouds.10 mph60%30.01 "HgN/A
7:30 AM68 °FPassing clouds.10 mph64%30.01 "HgN/A
7:00 AM68 °FPassing clouds.10 mph64%30.01 "HgN/A
6:30 AM66 °FPassing clouds.10 mph64%30.01 "HgN/A
6:00 AM64 °FSunny.13 mph68%30.04 "Hg10 mi
5:30 AM64 °FPassing clouds.10 mph68%30.04 "HgN/A
5:00 AM64 °FPassing clouds.8 mph64%30.04 "HgN/A
4:30 AM64 °FClear.8 mph64%30.07 "Hg10 mi
4:00 AM64 °FClear.8 mph64%30.07 "Hg10 mi
3:30 AM64 °FClear.13 mph64%30.07 "Hg10 mi
3:00 AM66 °FPassing clouds.13 mph60%30.09 "HgN/A
2:30 AM66 °FClear.13 mph60%30.09 "Hg10 mi
2:00 AM66 °FClear.15 mph60%30.09 "Hg10 mi
1:30 AM68 °FClear.13 mph53%30.09 "Hg10 mi
12:30 AM68 °FClear.17 mph53%30.12 "Hg10 mi
12:00 AM68 °FClear.17 mph53%30.12 "Hg10 mi
11:30 PM
Fri, Jul 3
70 °FClear.17 mph50%30.12 "Hg10 mi
11:00 PM70 °FPassing clouds.17 mph50%30.12 "HgN/A
10:30 PM70 °FPassing clouds.17 mph50%30.12 "HgN/A
10:00 PM72 °FSunny.15 mph47%30.12 "Hg10 mi
9:30 PM73 °FSunny.13 mph47%30.12 "Hg10 mi
9:00 PM73 °FPassing clouds.17 mph44%30.12 "HgN/A
8:30 PM75 °FSunny.17 mph41%30.12 "Hg10 mi
8:00 PM77 °FPassing clouds.20 mph42%30.12 "HgN/A
7:30 PM79 °FSunny.22 mph45%30.12 "Hg10 mi
7:00 PM81 °FSunny.22 mph42%30.12 "Hg10 mi
6:30 PM81 °FSunny.24 mph42%30.12 "Hg10 mi
6:00 PM82 °FSunny.26 mph42%30.12 "Hg10 mi
5:30 PM82 °FPassing clouds.22 mph40%30.12 "HgN/A
5:00 PM82 °FSunny.29 mph40%30.12 "Hg10 mi
4:30 PM82 °FSunny.31 mph42%30.12 "Hg10 mi
4:00 PM82 °FSunny.24 mph42%30.12 "Hg10 mi
3:30 PM84 °FSunny.31 mph43%30.12 "Hg10 mi
3:00 PM84 °FPassing clouds.29 mph40%30.15 "HgN/A
2:30 PM84 °FSunny.26 mph40%30.15 "Hg10 mi
2:00 PM82 °FSunny.26 mph42%30.15 "Hg10 mi
1:30 PM82 °FSunny.24 mph42%30.15 "Hg10 mi
1:00 PM82 °FPassing clouds.17 mph42%30.15 "HgN/A
12:30 PM82 °FSunny.17 mph42%30.18 "Hg10 mi
12:00 PM82 °FSunny.17 mph45%30.18 "Hg10 mi
11:30 AM81 °FPassing clouds.10 mph48%30.18 "HgN/A
11:00 AM79 °FPassing clouds.10 mph51%30.18 "HgN/A
Weather by CustomWeather, © 2015

See weather overviewHow to use our weather pages